Flag for Sweden Weather past 2 weeks in Linköping, Sweden

Now
34 °F

Chilly.


Feels Like: 28 °F
Forecast: 37 / 42 °F
Wind: 7 mph from West

Location: Linkoping / Saab

Current Time: Dec 21, 2014 at 1:36:20 PM

Latest Report: Dec 21, 2014 at 12:50 PM


Visibility: N/A

Pressure: 29.74 "Hg

Humidity: 81%

Dew point: 28 °F

Location of LinköpingLocation

Historic Weather in Linköping — Graph

°F

Linköping temperature yesterday

Maximum temperature yesterday: 41 °F (at 12:50 AM)
Minimum temperature yesterday: 32 °F (at 8:20 PM)
Average temperature yesterday: 37 °F

Past Weeks' High & Low Weather Summary

 TemperatureHumidityPressure
High45 °F (Dec 19, 4:20 AM)100% (Dec 6, 12:20 PM)30.07 "Hg (Dec 6, 12:20 PM)
Low27 °F (Dec 17, 10:50 PM)70% (Dec 10, 5:50 AM)28.77 "Hg (Dec 12, 10:50 PM)
Average37 °F88%29.48 "Hg
* Reported Dec 6 12:20 PM — Dec 21 12:20 PM, Linköping, Weather by CustomWeather, © 2014

Note: Actual official high and low records may vary slightly from our data, if they occured in-between our weather recording intervals... More about our weather records

Advertising

Linköping weather history for previous 24 hours

 ConditionsComfort  
Time TempWeatherWind HumidityBarometerVisibility
12:20 PM
Dec 21
34 °FChilly.8 mph81%29.74 "HgN/A
11:50 AM34 °FChilly.10 mph81%29.74 "HgN/A
11:20 AM34 °FChilly.9 mph81%29.74 "HgN/A
10:50 AM34 °FChilly.8 mph81%29.74 "HgN/A
10:20 AM32 °FChilly.7 mph87%29.74 "HgN/A
9:50 AM32 °FChilly.7 mph87%29.74 "HgN/A
9:20 AM32 °FChilly.6 mph80%29.74 "HgN/A
8:50 AM32 °FChilly.8 mph75%29.74 "HgN/A
8:20 AM32 °FChilly.9 mph75%29.74 "HgN/A
7:50 AM32 °FChilly.10 mph75%29.74 "HgN/A
7:20 AM32 °FChilly.14 mph75%29.74 "HgN/A
6:50 AM30 °FClear.12 mph80%29.71 "Hg10 mi
6:20 AM32 °FClear.12 mph75%29.71 "Hg10 mi
5:50 AM32 °FClear.13 mph75%29.71 "Hg10 mi
5:20 AM32 °FChilly.15 mph75%29.68 "HgN/A
4:50 AM32 °FChilly.12 mph75%29.68 "HgN/A
4:20 AM32 °FPassing clouds.15 mph80%29.68 "HgN/A
3:50 AM32 °FChilly.10 mph80%29.65 "HgN/A
3:20 AM32 °FChilly.9 mph80%29.62 "HgN/A
2:50 AM32 °FChilly.10 mph80%29.62 "HgN/A
2:20 AM32 °FChilly.12 mph80%29.59 "HgN/A
1:50 AM32 °FChilly.12 mph80%29.59 "HgN/A
1:20 AM32 °FChilly.12 mph80%29.56 "HgN/A
12:50 AM32 °FChilly.10 mph80%29.56 "HgN/A
12:20 AM32 °FChilly.9 mph80%29.53 "HgN/A
11:50 PM
Dec 20
32 °FChilly.9 mph80%29.53 "HgN/A
11:20 PM32 °FClear.10 mph80%29.50 "Hg10 mi
10:20 PM32 °FClear.12 mph87%29.47 "Hg10 mi
9:50 PM32 °FClear.10 mph87%29.45 "Hg10 mi
9:20 PM32 °FChilly.9 mph87%29.42 "HgN/A
8:50 PM32 °FChilly.9 mph87%29.42 "HgN/A
8:20 PM32 °FChilly.10 mph93%29.39 "HgN/A
7:50 PM34 °FChilly.14 mph87%29.36 "HgN/A
7:20 PM34 °FChilly.9 mph93%29.33 "HgN/A
6:50 PM36 °FChilly.9 mph87%29.33 "HgN/A
6:20 PM36 °FChilly.10 mph93%29.30 "HgN/A
5:50 PM36 °FChilly.8 mph93%29.30 "HgN/A
5:20 PM36 °FPassing clouds.8 mph93%29.27 "HgN/A
4:50 PM36 °FPassing clouds.7 mph93%29.27 "HgN/A
4:20 PM37 °FPartly cloudy.9 mph87%29.24 "HgN/A
3:50 PM37 °FPassing clouds.8 mph87%29.24 "HgN/A
3:20 PM37 °FPassing clouds.7 mph87%29.24 "HgN/A
2:50 PM37 °FScattered clouds.5 mph87%29.21 "HgN/A
2:20 PM37 °FScattered clouds.5 mph87%29.21 "HgN/A
1:50 PM39 °FRain showers. Broken clouds.10 mph87%29.21 "HgN/A
1:20 PM39 °FPartly sunny.8 mph81%29.21 "HgN/A
Weather by CustomWeather, © 2014

See weather overviewHow to use our weather pages